CZ-2D DEB, 47975

Orbit data source: Space-Track

CZ-2D DEB, 47975 is space debris in SSO originally from a launch on Wed, 25 Sep 2019 UTC launched from the Jiuquan Satellite Launch Center, China (JSC). Debris objects in space refer to the collection of defunct objects orbiting the Earth. Examples of debris include non-operational satellites, rocket bodies, and fragments generated from explosions, collisions, or faulty payload assembly.

Loading next visibility...
Identifier
47975, 2019-063E
Orbit
SSO
Country
Flag of CNCN / PRC
Related business
Manufacturer
Unknown
Mission
Spacecraft
Bus & Motor
Unknown
Mass
Unknown
Launch date (UTC)
2019-09-25 (7 years ago)
Launch vehicle
Unknown
Launch site
Jiuquan Satellite Launch Center, China (JSC)
Object type
Payload
Rocket body
Debris
Shape & HBR
Unknown shape, 0.1 m
Radar Cross Section
Medium (>0.1 m² and <1 m²)

Expand to show TLE details & history
Last TLE update: 3 days ago

TLE from 3 days ago
0 CZ-2D DEB
1 47975U 19063E   26170.66849004  .00000317  00000-0  12164-3 0  9992
2 47975  98.4613 229.4187 0008396 134.8567 225.3303 14.36893130286741
Epoch: 2026-06-19T16:02Z
TLE epoch observation values (Epoch: 2026-06-19T16:02:37.539Z)
Latitude
-0.00001°
Longitude
80.86813°
Altitude
775.949 km
Speed
7.464 km/s
True Right ascension
15h 17m 40s
True Declination
0° 00' 00"
Sunlit
Object was in full shadow at epoch
Visualization orbit readout
Latitude
Unknown
Longitude
Unknown
Altitude
Unknown
Speed
Unknown
Apparent Right ascension
Unknown
Apparent Declination
Unknown
Sunlit
N/A
Visualization observer readout
Local Sidereal Time
21:30:30
Azimuth
Unknown
Elevation
Unknown
Doppler factor
Unknown
Orbital elements
Apogee altitude
771.904 km
Perigee altitude
759.908 km
Semi-major axis
7,144.043 km
Eccentricity
0.00084
Inclination
98.4613°
RAAN
229.4187°
Arg. of periapsis
134.8567°
True anomaly
225.26193°
Mean anomaly
225.3303°
Eccentric anomaly
225.29611°
Mean motion
3.59441 °/min
Orbital period
100.16 mins
BSTAR
0.00012164

Documentation

Showing up to 5 results
|